Regional Weather Roundup
Issued by NWS

Home | Current Version | Previous Version | Graphics & Text | Print | Product List | Glossary Off
Versions: 1 2 3 4 5 6 7 8 9 10 11 12 13 14 15 16 17 18 19 20 21 22 23 24 25 26 27 28 29 30 31 32 33 34 35 36 37 38 39 40 41 42 43 44 45 46 47 48 49 50

000
ASUS43 KMKX 240321
RWRWI

WISCONSIN REGIONAL WEATHER ROUNDUP
NATIONAL WEATHER SERVICE MILWAUKEE/SULLIVAN WI
1000 PM CDT THU MAR 23 2017

NOTE: "FAIR" INDICATES FEW OR NO CLOUDS BELOW 12,000 FEET WITH NO
SIGNIFICANT WEATHER AND/OR OBSTRUCTIONS TO VISIBILITY.

WIZ001-002-006>008-014>016-023>028-240400-
NORTHWEST WISCONSIN

CITY           SKY/WX    TMP DP  RH WIND       PRES   REMARKS
SUPERIOR ARPT  MIX PCPN  32  32  99 CALM      29.91F
ASHLAND        MIX PCPN  32  31  96 CALM      29.93F FOG
HAYWARD        CLOUDY    34  30  85 E3        29.89F FOG
SIREN          CLOUDY    33  32  96 CALM      29.88F FOG
CUMBERLAND     CLOUDY    34  32  93 CALM      29.86F FOG
RICE LAKE      CLOUDY    37  35  91 CALM      29.88F FOG
CHETEK         CLOUDY    37  35  90 CALM      29.88F
LADYSMITH      CLOUDY    38  29  69 S5        29.90F WCI  34
EAU CLAIRE     CLOUDY    41  33  73 S9        29.86F
MENOMONIE      CLOUDY    40  33  76 E7        29.86S
NEW RICHMOND   CLOUDY    36  35  96 CALM      29.87R
OSCEOLA        HVY RAIN  37  37 100 E3        29.89R
$$

WIZ003>005-009-010-017-018-240400-
NORTH CENTRAL WISCONSIN

CITY           SKY/WX    TMP DP  RH WIND       PRES   REMARKS
MANITOWISH WTR CLOUDY    32  32 100 NW7       29.94R WCI  26
ARBOR VITAE    CLOUDY    37  32  84 CALM      29.89R
WOODRUFF       CLOUDY    37  32  84 CALM      29.89R
RHINELANDER    CLOUDY    35  28  75 SE3       29.92R
EAGLE RIVER    MIX PCPN  32  27  82 S3        29.91R
LAND O LAKES   MIX PCPN  33  27  80 S6        29.92R WCI  27
PHILLIPS       CLOUDY    35  28  73 S5        29.88F WCI  31
TOMAHAWK       CLOUDY    32  31  94 CALM      29.91R
MEDFORD        CLOUDY    36  27  72 S7        29.88F WCI  30
MERRILL        CLOUDY    37  27  69 S3        29.92R
$$

WIZ029-030-035-036-043>047-240400-
CENTRAL WISCONSIN

CITY           SKY/WX    TMP DP  RH WIND       PRES   REMARKS
WAUSAU         CLOUDY    36  28  73 S9        29.91R WCI  29
MOSINEE        CLOUDY    36  30  80 S6        29.93R WCI  31
MARSHFIELD     CLOUDY    37  30  75 S13       29.90S WCI  29
STEVENS POINT  CLOUDY    36  29  75 S9        29.93S WCI  29
WAUPACA        CLOUDY    38  33  84 SE5       29.93F WCI  34
WAUTOMA        CLOUDY    38  33  82 CALM      29.95F
WISC RAPIDS    CLOUDY    38  32  79 S8        29.94R WCI  32
CAMP DOUGLAS   MOCLDY    39  32  75 CALM      29.95R
$$

WIZ011>013-019>022-031-037>040-048>050-240400-
NORTHEAST WISCONSIN

CITY           SKY/WX    TMP DP  RH WIND       PRES   REMARKS
ANTIGO         CLOUDY    32  28  85 S6        29.92S WCI  27
SHAWANO        CLOUDY    37  29  74 SE6       29.94F WCI  32
OCONTO         CLOUDY    35  29  79 S7        29.98R WCI  29
STURGEON BAY   LGT RAIN  36  30  79 S21G28    29.97F WCI  25
GREEN BAY      CLOUDY    37  32  82 S9        29.97F WCI  30
MANITOWOC      CLOUDY    37  32  82 S15       29.99F WCI  28
APPLETON       CLOUDY    36  28  75 SE9       29.93F WCI  29
CLINTONVILLE   CLOUDY    36  28  75 S9        29.95R WCI  29
OSHKOSH        CLOUDY    37  31  78 SE6       29.94F WCI  32
$$

WIZ032>034-041-042-053>061-240400-
SOUTHWEST WISCONSIN

CITY           SKY/WX    TMP DP  RH WIND       PRES   REMARKS
LA CROSSE      CLOUDY    40  35  83 NE3       29.93S
SPARTA         CLOUDY    38  36  91 NE6       29.93F WCI  34
VIROQUA        CLOUDY    37  35  92 SE13G29   29.84F WCI  29
BOSCOBEL       LGT RAIN  42  34  73 VRB5G18   29.92F
PRAIRIE DU CHI LGT RAIN  40  33  75 SE13G20   29.90F WCI  33
PLATTEVILLE    CLOUDY    40  33  74 SE10      29.97R WCI  34
$$

WIZ056-057-062-063-064-067-068-240400-
SOUTH CENTRAL WISCONSIN

CITY           SKY/WX    TMP DP  RH WIND       PRES   REMARKS
REEDSBURG      MOCLDY    39  34  81 S9G23     29.93R WCI  33
BARABOO/DELLS  MOCLDY    39  32  76 S24G31    29.89F WCI  29
LONE ROCK      CLOUDY    41  33  73 SE9       29.95F
MINERAL POINT  CLOUDY    41  34  75 SE12      29.96S
MADISON        CLOUDY    41  33  73 S17       29.96S
MIDDLETON      CLOUDY    41  35  77 S12       29.97S
WATERTOWN      CLOUDY    39  38  93 S9        29.95S WCI  33
MONROE         CLOUDY    39  32  75 SE12      29.97R WCI  32
JANESVILLE     CLOUDY    43  34  70 SE12      29.97F
$$

WIZ051-052-058>065-066-070>072-240400-
SOUTHEAST WISCONSIN

CITY           SKY/WX    TMP DP  RH WIND       PRES   REMARKS
MILWAUKEE      LGT RAIN  41  37  86 S12       29.98F
WAUKESHA       CLOUDY    36  36 100 S12       29.97F WCI  27
MILWAUKEE/TIMM CLOUDY    37  34  87 SE14      29.97F WCI  29
RACINE         LGT RAIN  44  33  65 S15       30.01F
KENOSHA        CLOUDY    42  35  76 E10       30.03F
FOND DU LAC    CLOUDY    38  30  73 S7        29.95R WCI  33
SHEBOYGAN      CLOUDY    38  32  79 MISG      29.97F
WEST BEND      CLOUDY    36  34  93 S8        29.96F WCI  29
JUNEAU         CLOUDY    37  34  89 SE8       29.96R WCI  30
$$

LSZ147-162-240400-
LAKE SUPERIOR

STATION/POSITION TIME  TEMP    WIND        PRES    WAVE
                       AIR SEA DIR/SP/G            HT/PER
                 (UTC) (F)     (DEG/KT/KT) (MB)    (FT/S)
DEVILS ISLAND    0300   33     110/  4/  5 1014.3F
PORT WING        0240   34     130/  2/  6 1012.9F
SAXON HARBOR     0230   35     260/  3/  5 1014.9R
$$

LMZ867-665-643>646-240400-
LAKE MICHIGAN

STATION/POSITION TIME  TEMP    WIND        PRES    WAVE
                       AIR SEA DIR/SP/G            HT/PER
                 (UTC) (F)     (DEG/KT/KT) (MB)    (FT/S)
CHAMBERS ISLAND  0240   37     150/ 11/ 20 1013.5F
NORTHPORT PIER   0221   35     150/ 10/ 16 1015.2F
SISTER BAY       0206   34     160/ 19/ 23   N/A
KEWAUNEE LAKESHO 0254   37     170/ 18/ 22 1014.8F
SHEBOYGAN LAKESH 0300   38     170/ 26/ 30 1014.4F
PORT WASHINGTON  0242   38     150/ 17/ 25 1015.2F
MILWAUKEE LAKESH 0300   38     160/ 10/ 12   N/A
KENOSHA   LAKESH 0300   40      90/ 15/ 17 1016.9
$$

TC  - TEMPERATURE IN CELSIUS
VSB - VISIBILITY IN STATUTE MILES
WCI - WIND CHILL INDEX
HX  - HEAT INDEX




USA.gov is the U.S. government's official web portal to all federal, state and local government web resources and services.